CAPE
0 0 0 0 2 2 0 0 0 0 0 0 0 0 0 0 0 0 0 0 0 0 1 0 6 1 2 1 1 3 2 1 3 5 6 5 2 2 1 0 0 0 0 0 0 0 0 0 0
0 0 0 0 0 0 9 0 1 6 0 0 0 0 0 0 0 0 0 0 0 0 2 6 2 5 12 4 3 2 2 1 4 4 2 2 2 0 0 0 0 0 0 0 0 0 0 0 0
0 0 0 0 19 0 0 0 0 8 8 2 0 0 0 0 1 0 0 0 0 0 1 4 6 14 5 4 2 1 6 3 2 2 2 1 0 0 0 0 0 0 0 0 0 0 0 0 0
0 0 0 0 12 13 10 0 0 0 0 0 3 2 0 0 0 0 0 0 0 0 5 12 12 8 1 1 7 7 4 1 0 0 0 0 0 0 0 0 0 0 0 0 0 0 0 0 0
0 0 0 0 26 14 22 17 4 6 2 3 1 0 0 0 0 0 0 0 0 0 4 8 6 1 1 7 5 3 0 0 0 0 0 0 0 0 0 0 0 0 0 0 0 0 0 0 0
0 0 7 11 15 39 26 24 9 0 4 44 8 8 0 0 0 0 0 0 0 0 0 1 2 5 4 2 0 0 0 0 0 0 0 0 0 0 0 0 0 0 0 0 0 0 0 0 0
0 0 4 13 18 29 1 27 38 25 12 26 5 1 0 0 0 0 0 0 0 0 0 0 0 1 0 0 0 0 0 0 0 0 0 0 0 0 0 0 0 0 0 0 0 0 0 0 0
0 0 1 4 29 27 19 37 38 16 15 0 0 0 0 0 0 0 0 0 0 0 0 0 0 0 0 0 0 0 0 0 0 0 0 0 0 0 0 0 0 0 0 0 0 0 0 0 0
0 0 0 0 5 35 26 52 26 30 20 40 18 2 0 0 0 0 0 0 0 0 0 0 0 0 0 0 0 0 0 0 0 0 0 0 0 0 0 0 0 0 0 0 0 0 0 0 0
0 0 0 0 0 0 15 29 71 74 63 28 0 0 0 0 0 0 0 0 0 0 0 0 0 0 0 0 0 0 0 0 0 0 0 0 0 0 0 0 0 0 0 0 0 0 0 0 0
0 0 0 0 0 0 0 5 74 101 73 7 1 0 1 0 0 0 0 0 0 0 0 0 0 0 0 0 0 0 0 0 0 0 0 0 0 0 0 0 0 0 0 0 0 0 0 0 0
0 0 0 0 0 0 0 29 71 145 185 78 0 0 0 0 0 0 0 0 0 0 0 0 0 0 0 0 0 0 0 0 0 0 0 0 0 0 0 0 0 0 0 0 0 0 0 0 0
0 0 0 0 0 17 74 81 107 81 73 10 0 0 0 0 0 0 0 0 0 0 0 0 0 0 0 0 0 0 0 0 0 0 0 0 0 0 0 0 0 0 0 0 0 0 0 0 0
0 0 0 0 142 174 176 178 136 26 5 3 0 0 0 0 0 0 0 0 0 0 0 0 0 0 0 0 0 0 0 0 0 0 0 0 0 0 0 0 0 0 0 0 0 0 0 0 0
0 0 0 0 113 67 110 134 130 26 4 9 0 0 0 0 0 0 0 0 0 0 0 0 0 0 0 0 0 0 0 0 0 0 0 0 0 0 0 0 0 0 0 0 0 0 0 0 0
0 0 0 28 52 30 14 15 86 27 24 0 0 0 0 0 0 0 0 0 0 0 0 0 0 0 0 0 0 0 0 0 0 0 0 0 0 0 0 0 0 0 0 0 0 0 0 0 0
0 0 0 0 0 11 0 3 77 6 0 0 0 0 0 0 0 0 0 0 0 0 0 0 0 0 0 0 0 0 0 0 0 0 0 0 0 0 0 0 0 0 0 0 0 0 0 0 0
0 0 0 0 0 17 20 1 0 0 0 0 0 0 0 0 0 0 0 0 0 0 0 0 0 0 0 0 0 0 0 0 0 0 0 0 0 0 0 0 0 0 0 0 0 0 0 0 0
0 0 0 0 0 0 0 0 2 0 0 0 0 0 0 0 0 0 0 0 0 0 0 0 0 0 0 0 0 0 0 0 0 0 0 0 0 0 0 0 0 0 0 0 0 0 0 0 0
0 0 0 0 0 0 0 0 0 0 0 0 0 0 0 0 0 0 0 0 0 0 0 0 0 0 0 0 0 0 0 0 0 0 0 0 0 0 0 0 0 0 0 0 0 0 0 0 0
0 0 0 0 0 0 0 0 0 0 0 0 0 0 0 0 0 0 0 0 0 0 0 0 0 0 0 0 0 0 0 0 0 0 0 0 0 0 0 0 0 0 0 0 0 0 0 0 0
0 0 0 0 0 0 0 0 0 0 0 0 0 0 0 0 0 0 0 0 0 0 0 0 0 0 0 0 0 0 0 0 0 0 0 0 0 0 0 0 0 0 0 0 0 0 0 0 0
0 0 0 0 0 0 0 0 0 0 0 0 0 0 0 0 0 0 0 0 0 0 0 0 0 0 0 0 0 0 0 0 0 0 0 0 0 0 0 0 0 0 0 0 0 0 0 0 0
0 0 0 0 0 0 0 0 0 0 0 0 0 0 0 0 0 0 0 0 0 0 0 0 0 0 0 0 0 0 0 0 0 0 0 0 0 0 0 0 0 0 0 0 0 0 0 0 0
0 0 0 0 0 0 0 0 0 0 0 0 0 0 0 0 0 0 0 0 0 0 0 0 0 0 0 0 0 0 0 0 0 0 0 0 0 0 0 0 0 0 0 0 0 0 0 0 0
0 0 0 0 0 0 0 0 0 0 0 0 0 0 0 0 0 0 0 0 0 0 0 0 0 0 0 0 0 0 0 0 0 0 0 0 0 0 0 0 0 0 0 0 0 0 0 0 0
0 0 0 0 0 2 0 0 0 0 0 0 0 0 0 0 0 0 0 0 0 0 0 0 0 0 0 0 0 0 0 0 0 0 0 0 0 0 0 0 0 0 0 0 0 0 0 0 0
0 0 0 0 15 8 1 0 0 0 0 0 0 0 0 0 0 0 0 0 0 0 0 0 0 0 0 0 0 0 0 0 0 0 0 0 0 0 0 0 0 0 0 0 0 0 0 0 0
0 0 0 0 2 2 0 0 0 0 0 0 0 0 0 0 0 0 0 0 0 0 0 0 0 0 0 0 0 0 0 0 0 0 0 0 0 0 0 0 0 0 0 0 0 0 0 0 0
0 0 0 0 0 0 0 0 0 0 0 0 0 0 0 0 0 0 0 0 0 0 0 0 0 0 0 0 0 0 0 0 0 0 0 0 0 0 0 0 0 0 0 0 0 0 0 0 0
CIN
0 0 0 0 -15 -16 0 0 0 0 0 0 0 0 0 0 0 0 0 0 0 0 0 0 0 -1 -3 -1 -2 -2 -5 -1 0 -1 -1 -1 0 -1 0 0 0 0 -1 0 0 0 0 0 0
0 0 0 0 0 0 -100 0 -165 -177 -41 -20 0 0 0 0 0 0 0 0 0 -1 -3 -1 -1 -1 -2 -2 -2 -2 -3 -1 0 0 0 -1 -1 0 0 0 0 0 0 0 0 0 0 0 0
0 0 0 0 -144 -14 0 0 0 -152 -191 -75 0 0 0 0 0 -1 0 0 0 0 -2 -1 -1 -3 -3 -3 -2 0 0 0 0 0 0 0 0 0 0 0 0 0 0 0 0 0 0 0 0
0 0 0 -2 -58 -64 -94 0 -1 0 -5 0 -232 -149 0 0 0 0 0 0 0 -2 -3 -4 -4 -5 0 0 0 0 0 0 0 0 0 0 0 0 0 0 0 0 0 0 0 0 0 0 0
0 0 0 -12 -71 -122 -154 -169 -144 -63 -23 -139 -46 0 0 0 0 0 0 0 0 -3 -3 -4 -3 0 0 0 -1 0 0 0 0 0 0 0 0 0 0 0 0 0 0 0 0 0 0 0 0
0 0 -58 -59 -73 -121 -149 -149 -127 0 -82 -150 -192 -121 0 0 0 0 0 0 0 0 -1 -1 -2 0 0 0 0 0 0 0 0 0 0 0 0 0 0 0 0 0 0 0 0 0 0 0 0
0 0 -110 -99 -75 -85 -24 -177 -121 -113 -140 -121 -238 -29 0 0 0 0 0 0 0 0 0 0 -1 -1 0 0 0 0 0 0 0 0 0 0 0 0 0 0 0 0 0 0 0 0 0 0 0
0 0 -127 -113 -74 -67 -109 -121 -128 -134 -156 -81 0 0 0 0 0 0 0 0 0 0 0 0 0 0 0 0 0 0 0 0 0 0 0 0 0 0 0 0 0 0 0 0 0 0 0 0 0
0 0 0 0 -77 -52 -136 -112 -212 -295 -249 -293 -300 -146 0 0 0 0 0 0 0 0 0 0 0 0 0 0 0 0 0 0 0 0 0 0 0 0 0 0 0 0 0 0 0 0 0 0 0
0 0 0 0 0 0 -83 -73 -167 -208 -210 -249 0 0 0 0 0 0 0 0 0 0 0 0 0 0 0 0 0 0 0 0 0 0 0 0 0 0 0 0 0 0 0 0 0 0 0 0 0
0 0 0 0 0 0 -8 -118 -180 -170 -171 -206 -167 0 0 0 0 0 0 0 0 0 0 0 0 0 0 0 0 0 0 0 0 0 0 0 0 0 0 0 0 0 0 0 0 0 0 0 0
0 0 0 0 0 0 0 -166 -154 -174 -150 -224 0 0 0 0 0 0 0 0 0 0 0 0 0 0 0 0 0 0 0 0 0 0 0 0 0 0 0 0 0 0 0 0 0 0 0 0 0
0 0 0 0 0 -67 -132 -104 -118 -223 -335 -480 0 0 0 0 0 0 0 0 0 0 0 0 0 0 0 0 0 0 0 0 0 0 0 0 0 0 0 0 0 0 0 0 0 0 0 0 0
0 0 0 0 -112 -107 -83 -158 -116 -436 -576 -246 0 0 0 0 0 0 0 0 0 0 0 0 0 0 0 0 0 0 0 0 0 0 0 0 0 0 0 0 0 0 0 0 0 0 0 0 0
0 0 0 0 -146 -141 -132 -112 -174 -447 -494 -402 0 0 0 0 0 0 0 0 0 0 0 0 0 0 0 0 0 0 0 0 0 0 0 0 0 0 0 0 0 0 0 0 0 0 0 0 0
0 0 0 -97 -140 -206 -185 -117 -280 -436 -369 0 0 0 0 0 0 0 0 0 0 0 0 0 0 0 0 0 0 0 0 0 0 0 0 0 0 0 0 0 0 0 0 0 0 0 0 0 0
0 0 0 0 0 -206 -40 -106 -278 -198 0 0 0 0 0 0 0 0 0 0 0 0 0 0 0 0 0 0 0 0 0 0 0 0 0 0 0 0 0 0 0 0 0 0 0 0 0 0 0
0 0 0 0 0 -370 -328 -83 0 0 0 0 0 0 0 0 0 0 0 0 0 0 0 0 0 0 0 0 0 0 0 0 0 0 0 0 0 0 0 0 0 0 0 0 0 0 0 0 0
0 0 0 0 0 0 0 0 0 0 0 0 0 0 0 0 0 0 0 0 0 0 0 0 0 0 0 0 0 0 0 0 0 0 0 0 0 0 0 0 0 0 0 0 0 0 0 0 0
0 0 0 0 0 0 0 0 0 0 0 0 0 0 0 0 0 0 0 0 0 0 0 0 0 0 0 0 0 0 0 0 0 0 0 0 0 0 0 0 0 0 0 0 0 0 0 0 0
0 0 0 0 0 0 0 0 0 0 0 0 0 0 0 0 0 0 0 0 0 0 0 0 0 0 0 0 0 0 0 0 0 0 0 0 0 0 0 0 0 0 0 0 0 0 0 0 0
0 0 0 0 0 0 0 0 0 0 0 0 0 0 0 0 0 0 0 0 0 0 0 0 0 0 0 0 0 0 0 0 0 0 0 0 0 0 0 0 0 0 0 0 0 0 0 0 0
0 0 0 0 0 0 0 0 0 0 0 0 0 0 0 0 0 0 0 0 0 0 0 0 0 0 0 0 0 0 0 0 0 0 0 0 0 0 0 0 0 0 0 0 0 0 0 0 0
0 0 0 0 0 0 0 0 0 0 0 0 0 0 0 0 0 0 0 0 0 0 0 0 0 0 0 0 0 0 0 0 0 0 0 0 0 0 0 0 0 0 0 0 0 0 0 0 0
0 0 0 0 0 0 0 0 0 0 0 0 0 0 0 0 0 0 0 0 0 0 0 0 0 0 0 0 0 0 0 0 0 0 0 0 0 0 0 0 0 0 0 0 0 0 0 0 0
0 0 0 0 0 0 0 0 0 0 0 0 0 0 0 0 0 0 0 0 0 0 0 0 0 0 0 0 0 0 0 0 0 0 0 0 0 0 0 0 0 0 0 0 0 0 0 0 0
0 0 0 0 0 -19 0 0 0 0 0 0 0 0 0 0 0 0 0 0 0 0 0 0 0 0 0 0 0 0 0 0 0 0 0 0 0 0 0 0 0 0 0 0 0 0 0 0 0
0 0 0 0 -15 -20 -25 0 0 0 0 0 0 0 0 0 0 0 0 0 0 0 0 0 0 0 0 0 0 0 0 0 0 0 0 0 0 0 0 0 0 0 0 0 0 0 0 0 0
0 0 0 0 -33 -12 -6 0 0 0 0 0 0 0 0 0 0 0 0 0 0 0 0 0 0 0 0 0 0 0 0 0 0 0 0 0 0 0 0 0 0 0 0 0 0 0 0 0 0
0 0 0 0 0 0 0 0 0 0 0 0 0 0 0 0 0 0 0 0 0 0 0 0 0 0 0 0 0 0 0 0 0 0 0 0 0 0 0 0 0 0 0 0 0 0 0 0 0
Wind_Speed
11 10 13 16 16 17 19 18 19 23 21 19 24 21 19 20 21 21 19 18 19 18 17 17 17 17 17 17 18 18 19 21 22 23 24 25 26 27 28 29 30 31 31 31 31 31 31 31 31
10 12 15 15 17 20 22 23 19 19 21 20 20 20 22 20 22 18 18 18 18 18 17 17 17 17 18 18 18 19 20 21 22 23 24 25 26 27 29 30 30 31 31 31 32 31 31 31 32
10 15 15 16 17 20 22 19 13 17 19 18 19 21 20 20 19 17 17 18 18 18 17 17 17 17 18 18 19 19 20 21 22 23 24 25 26 28 29 29 30 31 30 31 32 32 32 33 32
13 16 15 16 17 20 24 20 18 13 17 20 21 19 20 20 17 16 18 17 18 18 18 17 17 17 17 18 18 19 20 21 22 23 24 25 26 28 29 30 31 31 31 32 33 34 33 33 33
15 16 15 17 18 20 21 22 19 16 17 21 22 19 20 21 20 20 18 16 16 17 17 17 17 17 17 18 18 19 20 21 22 23 24 26 27 28 30 30 31 31 32 32 33 34 33 33 34
17 16 16 18 20 20 20 17 17 13 13 16 21 21 18 17 17 17 17 17 16 16 17 17 16 17 17 18 19 20 20 22 23 23 24 26 28 29 30 31 32 32 32 33 34 35 34 34 35
16 17 18 19 21 21 17 13 14 16 18 14 14 18 15 13 15 16 17 18 17 16 16 16 16 16 17 18 19 20 21 22 23 24 25 26 29 31 32 31 32 33 32 33 34 35 34 35 35
16 17 18 19 19 21 17 14 13 17 18 14 15 14 13 11 17 17 18 17 16 16 15 15 16 16 17 17 19 20 21 23 24 25 26 28 29 32 32 33 32 30 33 33 35 35 35 35 35
16 18 18 19 18 20 15 17 15 16 11 17 14 15 14 15 17 16 16 16 15 15 14 14 15 15 16 17 18 19 21 23 24 25 27 29 30 32 33 32 32 32 34 34 35 34 35 35 36
16 18 18 16 20 26 21 14 13 16 11 16 14 16 13 15 13 14 13 13 13 13 14 14 14 14 14 16 17 18 20 22 24 25 28 29 31 32 33 32 33 34 35 35 35 34 35 36 36
17 22 20 27 28 28 19 17 16 12 12 9 7 9 11 12 12 12 12 12 13 13 14 14 15 15 16 16 17 18 19 21 24 25 27 29 32 33 33 32 34 35 36 36 35 36 36 36 36
22 26 27 31 28 23 13 10 14 14 17 7 8 9 10 10 10 11 12 13 13 14 14 14 15 16 17 17 18 19 20 21 24 25 28 30 32 33 34 33 35 36 36 35 35 36 36 36 36
18 24 24 26 19 12 7 12 13 16 12 11 11 10 9 10 10 11 12 14 13 13 13 13 15 16 17 18 19 20 20 23 24 27 28 29 31 33 33 34 35 35 35 35 36 35 36 36 36
13 21 23 13 11 10 10 11 14 14 10 13 13 11 8 10 9 12 12 13 13 14 15 15 17 18 18 21 21 22 22 24 25 26 26 28 30 32 33 35 36 36 35 35 34 34 35 36 36
20 21 21 9 8 11 12 17 20 9 10 12 14 13 11 11 11 12 13 13 13 15 16 18 19 19 20 22 22 23 25 26 27 26 27 28 30 32 34 36 36 35 35 35 34 34 35 35 36
15 16 15 11 12 15 19 20 14 9 11 14 16 17 15 15 14 14 15 15 16 17 19 21 20 21 23 24 24 26 27 29 28 26 27 28 30 32 34 35 35 35 35 35 35 34 36 36 37
17 15 13 11 23 14 15 16 8 11 11 14 15 17 17 17 17 16 17 17 18 19 20 21 23 25 25 25 26 29 30 31 30 27 28 30 31 32 33 34 34 35 35 36 36 34 35 37 38
15 13 12 18 19 13 12 14 11 12 10 12 14 15 17 18 18 17 18 19 19 20 22 25 26 27 26 27 28 31 32 32 32 32 32 33 32 32 33 32 34 34 35 37 37 35 35 36 37
14 12 16 14 8 16 12 12 12 12 12 12 14 16 17 17 17 17 18 19 20 22 25 26 27 28 28 30 31 33 33 32 34 34 35 35 32 32 31 32 34 35 36 37 37 35 36 36 35
16 19 16 13 12 11 12 14 12 11 12 12 13 14 14 15 16 17 18 20 22 24 26 26 27 29 31 32 32 31 31 32 31 33 35 35 34 32 31 33 35 36 37 37 36 36 36 33 34
17 18 4 10 12 11 11 16 13 14 13 13 13 13 14 14 14 16 18 20 23 26 26 26 27 29 32 33 33 33 31 31 34 34 35 34 33 33 34 33 35 35 35 37 36 35 34 35 34
19 13 6 4 8 13 11 16 14 11 12 12 12 13 13 13 15 16 18 21 24 24 24 26 28 30 32 33 34 35 35 35 33 32 32 34 35 35 33 34 34 35 35 35 34 32 32 33 35
12 4 7 3 12 12 14 17 14 8 10 10 9 11 12 13 14 17 18 21 23 24 26 26 29 32 32 33 33 34 35 33 32 33 34 34 34 34 34 34 33 34 33 33 32 31 32 30 30
11 10 14 11 14 15 15 14 9 5 7 9 12 13 11 13 15 17 19 20 23 25 26 28 30 31 32 32 33 34 35 34 35 35 36 35 35 35 33 33 32 31 32 32 31 29 29 28 27
15 15 14 14 14 14 14 14 16 4 9 7 10 10 11 13 14 17 19 21 24 26 27 29 29 31 31 32 33 34 34 34 35 36 36 37 36 35 34 32 32 31 30 28 30 30 29 27 27
14 12 10 11 11 13 16 14 16 15 11 10 10 11 12 13 14 17 18 21 25 26 27 29 29 31 31 31 33 33 34 34 35 34 34 35 35 33 31 32 30 28 27 27 29 30 30 29 31
14 16 15 12 14 13 14 16 16 14 12 11 11 11 12 13 14 15 18 22 25 26 28 28 29 31 30 31 32 34 33 34 36 35 34 34 32 32 30 29 29 28 28 28 30 31 32 35 35
15 15 13 15 11 14 15 16 15 7 7 9 10 11 12 13 14 15 19 22 24 26 27 27 29 30 30 31 33 34 34 33 35 35 36 34 34 33 31 31 31 31 31 30 30 33 36 37 37
15 16 16 14 15 15 16 16 17 5 7 8 9 10 11 12 13 16 19 22 25 26 26 27 29 30 30 31 33 35 34 35 36 36 36 35 34 34 34 33 32 34 33 32 34 36 36 37 36
15 15 16 15 14 17 16 17 18 10 10 10 10 11 12 13 14 16 20 22 25 26 27 28 29 30 30 31 33 35 35 35 37 37 36 35 36 34 34 34 34 34 32 34 35 36 35 35 34
Wind_Direction
329 330 295 314 322 328 336 334 340 332 354 3 1 354 3 349 345 347 51 61 76 72 75 72 66 62 56 48 42 35 30 24 18 16 12 9 5 3 0 357 355 353 352 351 349 347 346 346 345
350 311 304 329 329 324 323 323 320 348 352 307 338 353 354 1 14 37 46 64 69 66 65 65 63 58 51 46 39 33 29 23 19 15 13 10 7 4 1 359 356 354 352 351 349 347 345 344 342
340 314 313 329 336 335 331 339 6 1 358 337 329 349 351 347 21 48 59 70 64 66 68 64 58 52 49 44 38 32 26 21 17 15 12 10 7 4 1 359 356 355 353 351 349 347 345 342 342
309 309 317 329 333 336 338 339 337 351 14 6 349 4 352 341 15 63 75 66 66 64 64 57 48 45 45 40 34 28 23 19 16 12 10 7 5 2 1 359 358 356 353 350 346 345 344 343 342
311 317 328 332 330 332 342 344 332 343 2 352 4 8 358 346 50 75 70 62 58 56 54 49 46 45 41 36 30 24 20 16 13 10 7 4 1 359 358 357 355 354 352 349 346 344 343 343 341
309 317 325 322 323 333 336 10 8 18 9 355 358 356 5 44 58 76 66 62 54 56 58 50 46 39 35 33 27 23 17 14 9 7 5 2 358 356 354 352 350 349 347 345 344 343 343 342 340
306 314 318 321 317 328 336 1 5 355 338 1 30 2 24 57 87 79 69 69 64 55 52 41 37 37 35 30 27 20 14 10 6 4 2 358 356 355 351 350 348 346 346 345 344 343 342 339 338
303 310 318 317 319 326 340 344 354 338 340 31 23 5 10 60 91 81 79 72 65 54 47 47 44 42 37 30 23 16 12 7 4 3 1 357 355 352 350 348 348 351 348 345 343 341 340 339 338
304 302 309 317 324 323 348 343 1 11 17 358 9 3 16 82 90 81 75 70 64 54 53 53 51 46 37 30 21 17 12 10 6 5 1 357 353 351 350 351 350 348 345 343 342 341 339 338 336
293 297 305 314 318 316 318 335 348 348 357 346 3 21 51 82 80 83 74 66 60 59 62 60 56 49 44 33 26 17 12 8 5 2 359 358 357 354 351 350 349 346 345 343 342 342 339 337 335
292 288 304 300 308 312 318 318 329 356 349 3 25 42 63 70 75 78 73 69 69 72 64 67 59 51 42 35 27 17 10 6 2 2 360 357 354 353 353 351 348 346 343 342 341 340 339 338 336
290 289 294 290 311 318 328 337 332 333 340 26 55 55 70 62 79 86 72 65 70 71 67 57 44 38 29 25 16 13 8 3 0 359 356 355 354 353 351 349 347 345 344 343 342 340 339 338 337
303 297 306 309 324 344 356 336 337 326 7 54 54 56 59 71 83 69 61 61 67 58 51 41 33 24 22 21 15 10 7 2 0 358 358 359 356 354 354 351 348 346 345 344 342 341 340 338 337
328 314 312 331 341 349 352 347 341 345 20 22 33 30 53 69 53 53 54 54 54 39 33 33 29 28 25 15 12 10 8 3 360 360 1 359 356 354 353 350 348 346 345 344 343 342 340 339 338
316 313 313 341 353 347 0 321 327 359 14 17 22 38 40 36 50 41 43 42 45 35 36 30 27 28 18 14 12 10 5 2 359 360 359 357 355 354 352 350 348 347 346 344 344 342 342 341 340
328 325 323 330 319 316 320 319 340 357 1 360 14 29 27 24 30 35 35 41 42 34 27 26 27 17 12 9 8 2 2 359 357 356 354 354 353 352 351 350 349 348 347 346 345 343 341 340 338
319 316 322 336 316 320 324 332 358 354 5 3 12 22 27 30 28 28 36 40 31 30 26 21 14 7 6 6 3 0 358 356 354 353 352 350 349 350 350 350 350 349 347 346 343 341 340 338 337
319 327 334 334 345 8 9 1 10 5 13 11 14 17 20 25 29 31 41 36 29 25 20 11 7 5 6 4 0 358 357 358 358 354 350 347 347 349 350 351 350 349 347 344 342 340 340 339 337
326 332 328 342 357 347 1 6 4 7 10 13 24 26 25 26 39 40 35 29 25 18 11 7 6 6 5 1 358 357 357 356 355 356 354 352 350 350 351 350 349 348 345 343 342 341 339 339 340
318 316 328 356 2 359 5 1 6 12 11 25 25 25 26 29 34 34 24 17 16 12 10 10 9 7 5 3 1 358 356 356 356 356 356 357 356 356 354 349 347 346 344 344 343 341 339 339 340
318 319 350 347 16 45 23 349 356 5 14 18 17 23 26 34 37 20 20 18 12 11 11 12 10 8 6 3 2 1 360 358 356 356 357 358 357 355 351 350 348 347 347 343 343 343 342 339 340
305 330 26 71 351 333 338 328 339 357 2 7 15 19 23 25 22 31 19 13 13 16 16 14 11 8 5 4 2 1 359 356 358 358 358 357 356 355 354 352 351 349 348 346 345 347 345 343 340
323 64 6 343 330 336 333 334 340 354 348 355 17 27 35 26 33 24 20 22 20 18 15 14 10 7 6 6 6 4 1 2 1 0 358 358 357 357 355 354 354 352 352 351 350 348 346 346 344
327 349 340 344 332 325 334 338 343 350 346 3 5 9 35 34 26 26 26 23 19 16 14 10 8 8 7 8 7 6 4 4 1 360 358 359 358 358 358 358 357 356 355 353 353 351 348 346 345
316 329 337 342 350 340 349 352 354 335 11 4 7 17 29 30 25 22 21 20 15 13 11 9 11 8 8 9 8 8 8 6 3 0 359 358 358 358 358 359 357 356 356 356 355 353 349 347 343
337 353 353 344 349 355 352 355 354 2 6 16 25 29 29 26 24 22 26 20 15 13 12 11 10 9 9 10 11 10 8 7 5 4 3 0 359 360 1 359 359 358 357 355 354 352 351 348 341
342 347 348 357 358 0 359 356 360 4 14 27 30 29 26 26 24 27 26 21 17 15 13 14 13 11 12 13 12 10 9 8 6 6 5 4 4 3 3 2 360 359 356 355 353 353 349 344 340
344 352 352 354 6 357 355 352 354 41 52 51 35 30 28 29 33 30 25 20 18 17 17 17 15 14 16 15 12 10 10 10 8 7 5 6 5 5 5 3 2 0 358 357 356 352 348 345 343
346 354 358 8 7 360 357 360 358 70 83 53 44 40 39 42 37 32 25 22 20 20 19 18 16 17 17 14 12 12 12 11 10 9 9 8 8 8 7 6 4 1 1 2 357 353 351 349 347
18 6 5 3 1 356 357 354 8 65 73 61 49 47 44 43 42 35 28 26 21 18 18 18 19 19 17 16 15 14 14 13 12 12 12 12 10 11 10 8 7 6 7 3 359 356 356 354 353